Location: Newark
(55.7083°N, 13.1992°E)
Time: 00:53:02
(UTC+00:00)

Transit 4A - Pass Details

Date: 18 February 2020
Orbit: 871 x 973 km, 66.8° (Epoch: 01 April)

Event Time Altitude Azimuth Distance (km) Brightness Sun altitude
Exits shadow 04:37:29 15° 309° (NW) 2,191 9.4 -15.9°
Maximum altitude 04:41:16 28° 359° (N) 1,596 9.1 -15.4°
Drops below altitude 10° 04:46:14 10° 57° (ENE) 2,534 11.1 -14.7°
Sets 04:49:06 0° 70° (ENE) 3,479 12.3 -14.3°
